STARLINK-5598 (55421 NORAD) Tracking and Keplerian Element Data

This shows tracking and keplerian element data for the satellite.

Feedback or suggestion? Click here.




ElementValue
Catalog55421
NameSTARLINK-5598
Epoch Orbit1611
Epoch Day127.25001157
Epoch Year2023
RAAN182.1655
Inclination69.9991
Eccentricity0.0003385
Argument of Perigee269.9786
Mean Anonmoly127.7398
Mean Motion15.4202243
Decay Rate-0.00965553
L11 55421U 23014AG 23127.25001157 -.00965553 00000+0 -24668-1 0 9994
L22 55421 69.9991 182.1655 0003385 269.9786 127.7398 15.42022430 16115



Live tracking and technical data element details for STARLINK-5598 (NORAD 55421). STARLINK-5598 can be tracked NOW for your location showing map with azimuth and elevation plus other details from your city location.







IsCatalogInMostPopularTable: catalog: 55421, numindb: 1
Update: records affected: 1



GetName: 55421 STARLINK-5598

Hit Count: updated at: Mon, 05 Jun 2023 19:47:20 GMT